GFSNGP_prec_cthk_021.txt.gz
RH
36 35 31 28 25 23 22 20 19 14 14 13 11 10 9 9 9 12 18 23 27 26 24 25 27 29 34 34 38 41 39 37 35 40 41 37 39 39 35 36 31 23 25 28
40 35 32 31 28 26 24 21 20 17 16 14 12 11 10 8 8 9 12 16 19 20 21 23 25 28 33 33 34 38 38 39 37 39 38 34 36 38 39 37 35 25 22 26
42 39 36 33 27 26 26 25 21 19 17 14 13 11 10 9 9 9 8 9 11 15 17 17 19 23 33 33 37 38 37 42 38 42 42 35 35 37 38 38 38 30 22 24
44 42 41 27 27 28 27 24 21 18 18 16 15 12 11 10 10 10 10 9 9 11 13 15 17 19 27 35 37 38 41 39 38 39 42 40 37 36 38 40 38 36 27 24
44 42 34 31 29 36 37 26 29 29 21 18 16 15 12 11 10 11 11 11 10 11 10 12 14 19 22 29 35 38 41 38 37 35 37 41 42 40 39 42 42 39 33 26
48 38 38 32 33 38 39 33 37 36 33 29 19 17 14 12 11 11 12 12 11 10 10 12 15 19 20 23 25 27 35 35 38 41 43 41 44 46 45 44 41 43 39 34
49 48 40 34 40 49 47 35 41 40 35 36 32 19 18 16 13 12 12 13 12 12 9 10 13 17 21 22 22 26 30 31 32 34 39 42 43 41 47 49 49 46 44 41
49 48 45 33 37 43 51 47 42 41 39 37 35 31 23 21 18 16 15 16 15 13 12 11 12 14 17 21 26 28 30 31 30 32 36 42 43 44 45 43 45 48 49 51
42 37 34 36 40 46 47 45 46 44 46 42 39 34 29 27 24 24 22 20 19 17 14 13 13 14 16 19 25 29 32 34 35 38 41 45 47 46 49 47 43 46 50 53
44 39 41 33 35 46 45 45 48 51 56 52 46 41 36 33 31 28 27 26 25 25 23 20 19 18 19 20 21 28 31 35 37 37 41 46 47 50 50 51 54 50 53 52
57 43 34 34 35 45 42 39 45 53 68 66 55 51 44 41 41 39 32 31 31 30 27 24 24 23 21 20 20 21 26 29 31 33 35 38 41 42 49 49 56 61 56 57
48 46 45 41 46 50 48 48 53 60 69 72 67 64 59 54 52 48 41 37 34 34 31 27 26 25 24 23 23 21 21 23 23 23 24 27 33 33 38 41 45 53 60 56
56 56 49 51 44 47 55 56 61 73 80 83 79 74 72 69 61 55 49 42 37 33 31 30 28 27 27 27 28 28 28 28 27 28 32 31 32 33 36 36 38 42 52 59
64 57 48 51 48 54 66 74 78 83 90 88 82 82 80 74 64 57 50 45 43 41 38 36 36 33 32 32 31 31 30 28 27 27 31 33 36 41 43 44 46 46 49 50
84 65 57 62 62 72 89 89 89 87 85 90 85 81 75 71 66 62 61 59 51 46 44 43 41 41 38 36 36 36 35 33 33 34 34 37 38 41 48 54 57 53 60 58
84 78 76 77 83 90 96 96 95 82 79 71 69 74 78 77 72 72 73 73 63 55 52 49 48 47 45 43 43 43 43 44 42 40 40 42 43 50 49 53 74 89 97 88
86 85 85 89 95 98 98 97 91 88 87 85 77 72 71 69 71 73 74 83 73 62 59 54 51 50 48 45 45 46 47 47 47 44 47 48 52 52 47 61 71 84 91 99
79 84 86 93 90 97 98 95 92 87 85 82 80 73 78 78 79 81 85 82 73 63 61 60 55 53 54 53 52 54 56 54 54 57 57 57 55 57 59 68 74 84 93 96
82 82 84 98 98 97 98 97 98 98 92 90 82 78 79 85 85 88 85 78 69 64 64 62 59 57 60 62 63 63 65 62 62 63 68 66 71 68 70 82 80 83 87 92
98 98 99 98 97 93 98 98 97 94 91 88 82 85 88 90 90 88 81 75 74 73 71 67 68 69 69 67 67 67 69 69 67 70 73 75 78 76 79 83 84 83 90 90
98 98 97 94 94 93 94 95 93 92 86 86 82 81 80 82 81 80 78 72 72 75 73 74 72 72 70 71 74 74 69 70 75 81 84 86 87 84 89 91 92 89 86 89
95 98 99 96 96 97 94 92 91 86 84 84 83 82 77 73 69 70 71 71 73 72 73 71 68 69 71 72 78 75 76 76 79 86 85 88 90 90 90 91 94 95 92 89
90 91 90 93 94 95 93 93 93 92 91 88 84 80 75 71 72 71 68 67 64 60 58 62 64 67 65 63 66 74 79 85 88 88 86 87 87 89 90 90 96 99 96 94
74 74 75 80 81 83 85 90 90 89 85 84 80 81 78 73 70 69 68 66 69 70 66 64 60 57 53 60 65 67 70 70 74 75 76 81 85 86 83 81 87 97 99 98
57 59 58 55 55 56 56 60 61 64 65 64 65 65 66 67 62 61 59 60 60 57 55 53 53 51 49 49 49 55 62 66 69 70 68 68 71 72 77 80 81 81 86 95
61 57 56 55 53 49 47 45 43 44 44 44 45 44 44 46 45 45 43 40 39 40 40 40 39 39 40 41 42 44 45 48 53 59 67 75 75 74 73 71 68 68 71 74
56 58 57 55 53 51 50 47 45 45 47 47 47 48 47 47 46 43 40 38 35 33 32 30 30 30 32 33 34 36 37 40 42 45 49 51 58 63 69 70 71 71 70 71

GFSNGP_prec_cthk_024.txt.gz
RH
36 35 30 26 23 21 20 19 17 15 15 14 14 11 12 11 13 21 27 29 32 32 35 36 31 31 33 33 34 37 44 44 39 35 36 39 41 38 38 40 39 39 37 29
38 36 33 30 27 24 22 21 20 18 17 17 16 14 11 11 10 10 15 25 27 30 31 32 31 32 33 33 34 36 38 40 43 40 37 39 43 41 37 38 40 41 40 37
40 35 35 34 28 27 25 23 22 20 20 18 17 16 14 11 10 9 9 12 18 22 25 27 30 29 27 29 32 35 36 40 44 43 38 38 44 45 41 39 43 42 42 41
42 43 43 29 30 30 28 25 23 22 21 20 19 18 17 14 12 10 9 9 11 15 18 21 24 26 27 27 27 32 34 37 40 44 43 47 46 44 42 41 39 40 41 40
47 42 35 34 33 32 32 28 26 25 25 23 22 19 17 15 12 10 9 10 10 11 14 14 18 20 20 25 25 32 33 33 37 42 43 43 42 44 44 45 43 40 42 42
44 44 40 35 34 40 40 37 36 37 33 33 32 25 19 16 15 13 12 12 11 10 10 11 10 14 19 20 22 21 32 39 39 39 42 42 39 41 43 42 45 49 48 44
51 45 38 38 45 52 45 57 51 45 44 38 35 32 28 24 22 19 16 13 13 13 11 10 9 9 12 19 19 22 31 33 35 36 38 39 38 38 41 43 46 48 46 45
47 47 45 37 37 44 62 61 55 49 46 45 41 37 34 32 26 21 21 18 15 14 14 15 12 10 11 14 20 25 28 29 29 29 36 37 36 37 40 44 44 44 43 45
48 40 39 42 39 44 45 52 52 44 41 39 37 38 37 33 30 27 26 26 19 18 19 19 16 17 15 15 21 26 28 29 30 33 34 34 36 36 39 44 46 47 46 47
45 40 47 47 40 41 45 45 47 46 41 38 36 39 41 37 34 33 31 26 25 25 24 23 22 22 22 18 18 20 23 29 32 37 39 40 41 40 41 45 49 54 60 57
49 47 38 39 35 37 41 45 45 45 44 41 38 42 44 44 40 38 34 31 31 32 31 29 27 24 22 20 19 23 24 25 26 30 34 38 40 43 41 41 48 53 54 61
43 44 45 42 39 43 44 41 41 40 38 41 44 50 54 49 47 44 43 39 37 36 36 35 34 29 26 24 22 21 21 21 23 26 30 33 38 40 36 36 38 36 38 46
55 53 55 50 47 36 33 30 30 37 39 45 53 59 58 52 53 50 47 45 42 40 41 39 35 33 30 30 26 25 26 25 27 25 26 29 32 36 37 38 38 36 34 35
71 66 57 48 43 37 36 35 39 40 51 53 57 61 64 65 64 61 57 55 51 48 46 43 40 38 38 36 33 32 30 29 31 32 33 35 33 33 32 32 32 32 35 35
84 82 65 57 49 43 44 48 47 59 70 80 81 81 79 75 71 67 63 60 55 52 48 47 46 45 45 46 44 43 41 40 39 38 38 37 36 35 34 36 36 35 34 37
93 92 75 59 49 47 46 52 67 85 79 89 91 90 92 83 77 72 65 59 54 52 52 51 51 52 52 51 53 50 47 44 44 45 47 47 48 47 44 41 42 42 44 44
83 87 69 60 55 52 60 74 95 86 90 99 96 95 94 86 82 78 73 67 59 58 57 55 58 58 57 57 58 60 54 51 50 50 48 49 52 50 51 49 47 50 52 51
95 94 77 74 70 74 88 98 98 98 98 88 92 94 94 88 87 79 74 73 64 63 63 63 63 63 64 66 68 67 57 52 51 52 55 56 57 59 58 59 60 58 57 56
97 99 97 93 86 99 98 98 98 90 98 91 90 90 88 88 90 87 81 77 77 76 77 75 78 75 72 72 70 72 65 61 60 60 63 67 68 66 67 69 65 65 65 71
98 99 98 97 98 98 99 99 99 98 98 97 97 95 91 93 93 91 84 82 84 83 82 79 81 76 76 71 67 65 64 67 70 72 71 75 76 73 73 74 70 73 74 78
98 98 96 97 98 96 96 96 95 95 97 99 98 96 94 94 92 83 81 82 83 85 80 76 78 77 76 75 69 68 69 71 72 78 79 79 81 80 80 77 74 78 84 86
96 96 98 97 96 96 94 92 90 90 87 89 92 90 90 88 87 84 83 80 80 79 78 75 76 76 77 78 76 74 72 71 73 75 74 80 84 85 86 83 81 85 86 90
86 91 92 92 94 95 95 95 92 91 93 91 88 89 86 84 82 78 73 70 70 71 71 69 67 68 62 67 70 71 76 79 80 78 77 79 82 82 83 81 85 90 92 92
67 69 73 73 74 74 78 83 84 86 86 82 83 83 78 76 74 73 73 65 63 64 59 57 56 53 50 52 56 63 70 74 73 71 73 71 73 76 78 81 78 76 88 94
62 58 56 56 56 55 54 56 60 61 62 62 63 63 65 65 65 63 60 58 56 54 52 49 47 46 46 48 49 48 52 59 61 64 64 64 68 69 66 66 67 73 76 76
57 61 59 55 53 51 49 48 45 44 44 46 47 47 47 47 47 48 49 46 43 41 39 38 38 38 39 38 40 41 44 45 49 51 54 56 60 65 67 67 68 70 70 72
48 48 51 51 49 48 47 47 47 47 47 46 45 44 43 42 41 40 37 35 33 30 29 28 28 26 27 28 30 31 32 34 35 39 42 46 49 52 53 53 56 58 60 61

GFSNGP_prec_cthk_030.txt.gz
RH
38 34 32 26 24 23 19 20 19 19 19 24 21 19 21 22 24 29 30 35 41 44 47 47 36 30 33 39 41 44 44 44 43 44 43 39 39 37 34 30 28 27 26 28
47 39 41 35 27 23 23 20 23 20 19 22 25 19 22 22 25 27 31 35 38 41 48 49 49 33 30 33 38 42 42 39 41 41 44 48 47 43 40 36 35 34 28 29
49 48 45 42 33 28 24 23 23 21 22 23 25 25 22 18 22 25 27 30 32 36 38 38 41 34 30 31 33 39 39 37 37 38 39 42 45 47 44 41 38 35 34 32
52 54 57 43 37 34 28 25 23 23 22 27 29 30 27 22 19 21 24 25 25 26 29 29 33 36 32 33 35 33 36 37 39 39 38 40 40 43 47 46 41 41 37 36
56 58 51 48 42 36 36 31 26 25 24 28 32 34 32 25 21 19 19 19 21 22 23 24 26 33 34 33 32 31 31 33 34 36 38 38 38 37 42 49 48 45 42 40
58 58 56 49 43 39 38 37 43 34 32 30 32 35 42 35 33 28 27 24 22 21 19 19 21 26 28 30 30 34 35 35 35 34 34 35 38 38 37 44 49 48 41 38
58 56 55 57 47 44 44 63 56 46 41 38 40 46 45 39 36 31 26 24 22 19 17 17 18 20 22 23 24 24 27 29 33 35 35 33 38 42 40 43 46 45 46 48
57 57 67 60 57 59 72 67 58 55 51 47 44 45 46 45 38 35 32 29 25 22 19 19 17 15 14 14 17 20 22 24 25 28 34 36 39 41 39 41 44 44 45 47
56 54 59 61 62 67 62 67 65 58 52 50 51 49 50 44 40 42 40 36 34 28 26 25 22 18 15 15 15 14 17 17 19 22 25 33 40 39 37 38 45 46 46 48
65 56 59 62 63 60 63 59 64 57 54 56 56 51 43 42 41 47 53 43 34 32 33 35 29 26 23 20 18 17 17 18 18 20 23 27 35 40 43 44 44 46 48 49
66 58 59 61 58 54 56 56 55 59 59 57 52 49 45 45 45 49 49 45 40 40 41 37 32 29 26 23 23 23 22 22 22 25 29 32 35 37 43 45 46 45 47 50
59 61 63 59 62 56 48 53 52 52 56 57 52 46 42 46 49 43 40 38 43 46 43 38 33 30 29 24 25 27 28 28 29 30 32 33 36 39 41 46 50 50 50 51
60 52 54 56 57 59 55 51 51 52 52 52 46 42 39 42 47 46 42 37 35 41 41 40 38 37 33 30 29 31 32 34 33 35 39 41 41 44 47 46 46 46 44 40
54 55 50 47 47 52 52 52 51 48 49 49 45 42 38 44 49 48 46 44 42 43 44 45 43 42 39 35 30 32 34 35 33 35 38 39 38 40 42 41 40 37 36 36
59 50 43 47 50 51 46 48 48 45 45 47 49 49 46 44 46 47 48 49 53 48 45 49 47 46 44 40 38 35 36 35 34 32 33 34 36 37 37 36 35 35 34 32
72 59 53 51 49 48 47 45 45 41 38 35 39 45 49 42 43 50 57 53 48 50 50 55 51 51 50 45 42 39 38 40 42 42 40 42 42 41 41 42 42 40 40 40
80 74 73 72 61 54 52 48 45 44 34 33 36 46 39 36 50 50 47 54 54 56 61 61 62 57 54 48 46 47 45 44 43 44 44 45 48 48 48 48 49 49 50 49
88 89 88 84 78 72 65 57 53 49 48 47 51 41 33 44 51 54 65 69 84 78 69 67 67 65 61 58 56 53 53 54 52 50 50 51 52 52 52 52 53 52 53 53
81 83 83 85 78 76 72 66 62 62 64 68 59 50 53 56 81 75 70 75 81 81 76 68 69 67 61 73 73 67 62 62 62 59 59 59 58 60 59 59 59 59 59 59
98 99 96 90 96 92 87 84 79 85 78 70 77 79 80 77 88 91 90 91 89 85 81 81 75 67 78 78 73 70 70 68 67 67 67 66 67 68 67 66 67 69 67 69
98 98 98 98 98 98 99 98 87 88 85 99 99 98 98 99 98 98 92 93 96 96 95 92 87 81 83 80 75 77 77 77 77 74 73 72 70 68 69 70 71 74 76 74
93 94 97 97 98 98 99 94 97 98 97 95 98 98 97 97 97 97 97 97 97 97 97 95 95 94 92 89 85 82 80 80 81 79 74 71 71 69 66 65 65 68 71 73
85 89 89 90 92 96 96 96 97 97 97 97 96 95 95 94 93 93 94 94 93 94 92 93 92 91 91 91 92 92 91 91 89 85 77 75 76 75 73 72 68 67 65 62
70 68 72 79 82 82 83 86 88 89 91 92 93 93 92 90 88 86 82 81 79 79 78 77 75 75 75 72 73 74 80 83 80 77 75 74 72 72 73 71 69 66 65 62
53 62 62 66 67 66 68 71 71 70 70 73 75 73 74 74 74 72 74 72 65 63 58 57 58 57 58 61 62 62 61 61 60 62 61 60 60 59 59 58 57 55 53 52
35 43 50 52 53 54 56 53 52 53 54 53 51 50 51 51 51 50 48 49 51 53 54 51 51 51 50 49 50 50 52 56 54 54 57 58 58 56 54 51 50 50 50 48
48 40 46 45 41 42 46 49 47 43 40 41 39 37 35 32 33 35 38 40 36 36 35 34 32 35 38 39 42 44 43 41 39 40 40 43 44 44 47 48 45 41 38 33

GFSNGP_prec_cthk_033.txt.gz
RH
40 34 33 35 30 28 23 23 19 17 23 25 23 22 24 23 19 24 28 36 42 39 38 41 42 28 29 33 34 31 29 32 31 29 28 27 27 27 26 26 23 23 22 22
45 37 38 40 31 28 23 21 22 17 20 23 23 23 23 23 22 25 29 34 41 45 42 39 41 39 23 32 36 38 37 36 38 36 39 40 39 35 32 30 28 27 23 22
49 44 46 49 41 31 27 23 21 20 21 29 27 24 22 23 22 26 27 33 41 46 48 44 46 44 41 28 32 37 38 42 40 40 41 39 40 42 41 38 36 34 32 27
59 53 60 43 42 39 29 26 23 20 25 27 30 31 29 25 24 26 27 28 32 36 39 43 47 49 48 36 31 31 35 39 42 41 41 39 40 41 43 45 45 41 38 34
68 64 49 47 49 45 33 43 41 33 28 31 36 36 38 31 28 27 29 29 28 30 33 37 40 44 50 49 36 30 33 36 37 37 39 38 38 38 41 42 44 48 44 41
70 71 64 62 54 46 44 59 49 43 41 37 40 47 47 37 29 27 29 29 27 27 28 31 33 32 32 37 42 37 32 32 34 37 41 39 37 37 38 41 43 42 48 48
67 70 79 68 59 51 56 77 59 51 52 53 50 55 48 43 35 31 27 27 27 28 28 30 31 32 32 32 30 32 36 37 37 36 37 38 39 38 39 40 43 45 43 45
66 71 90 75 68 69 72 68 63 58 63 56 55 54 52 49 45 39 32 30 25 20 21 24 23 25 26 25 24 26 30 34 34 33 33 34 36 39 41 42 41 45 44 43
77 83 75 83 77 69 68 69 64 60 61 58 54 51 52 53 51 47 40 34 31 26 24 25 23 20 18 17 20 21 21 21 26 30 29 30 31 33 37 42 46 49 47 45
75 75 75 76 79 74 63 67 67 60 56 55 54 52 51 53 55 51 44 39 35 32 36 36 31 27 21 18 16 16 17 16 16 18 21 23 23 25 29 34 43 48 45 45
67 74 70 72 77 77 65 66 66 62 53 52 55 51 51 48 49 47 42 38 37 37 42 39 37 37 30 24 22 20 20 20 20 19 19 21 24 27 30 35 40 45 48 48
69 67 74 68 66 68 67 64 63 59 55 52 52 52 50 47 45 42 40 33 27 29 40 40 37 35 33 30 29 29 28 27 26 25 25 26 26 31 34 38 46 48 46 49
50 53 54 56 57 58 63 64 60 58 56 54 55 55 50 46 42 43 37 36 37 36 37 39 38 37 34 32 29 33 35 32 31 32 31 33 34 34 34 37 40 45 48 49
50 47 40 43 49 56 55 57 59 59 57 55 54 57 53 51 47 42 37 37 42 47 47 42 39 39 41 39 33 37 41 39 37 36 34 38 41 42 45 45 43 42 45 46
61 53 37 32 37 43 51 54 60 61 62 60 56 54 51 48 47 42 39 42 46 48 50 47 44 38 42 42 41 41 41 42 42 43 48 49 50 48 48 47 46 45 45 43
88 80 63 44 32 34 38 43 50 56 59 60 61 60 55 47 44 44 42 49 52 54 50 47 47 45 41 40 44 45 44 45 45 43 45 47 47 46 45 45 44 44 42 39
89 81 71 57 42 35 34 35 40 45 47 47 50 52 52 48 41 44 54 53 56 55 51 49 52 54 50 46 46 50 49 49 46 45 44 44 45 45 45 43 42 41 42 43
93 83 70 64 55 50 48 45 44 40 37 36 34 37 39 38 45 47 55 54 55 54 52 51 57 57 54 53 48 52 53 53 52 51 50 51 51 52 52 52 52 51 50 50
89 87 87 87 84 75 68 63 58 51 46 43 40 38 35 37 44 46 53 50 52 56 53 53 56 55 48 60 56 56 59 59 58 56 53 52 54 56 56 55 55 55 56 56
96 97 97 95 96 89 82 83 78 67 61 55 49 52 52 54 48 53 50 55 60 62 62 64 70 93 88 76 74 72 69 67 64 59 60 59 61 62 62 62 63 64 64 65
94 94 95 94 97 99 95 90 90 89 86 80 73 70 69 66 65 54 65 65 71 68 70 95 95 96 89 83 83 79 78 72 71 71 69 65 69 67 66 66 68 69 70 69
91 91 94 94 97 98 98 98 99 98 99 94 90 82 81 79 75 73 76 74 80 83 84 83 93 94 93 87 86 85 80 83 80 72 72 75 73 72 71 71 69 68 67 65
77 85 89 89 91 91 96 97 97 96 98 98 98 98 90 98 98 86 92 97 98 97 97 96 97 97 96 91 89 91 94 95 94 92 86 83 81 79 79 78 75 72 68 64
55 63 73 82 80 82 79 86 88 90 91 90 91 94 95 94 95 95 94 95 96 95 94 92 91 89 88 90 93 93 94 95 94 95 95 93 90 88 81 77 72 68 67 62
49 49 49 59 67 71 73 70 71 76 75 76 76 73 76 78 79 79 84 86 83 81 78 77 78 78 79 81 85 87 85 83 81 78 75 73 71 68 66 66 64 61 56 50
51 53 46 42 42 46 50 54 63 66 63 58 59 60 59 63 66 65 64 66 66 66 70 70 67 66 66 63 62 66 70 69 69 67 66 66 64 61 57 54 51 47 43 40
56 54 52 50 49 46 41 39 40 44 48 50 55 51 47 47 48 49 50 53 52 50 49 49 49 51 53 55 53 51 54 57 54 52 50 50 50 48 49 49 48 42 38 36